FW7112 Weather Reports


time (UTC)temp
F
wind
direction
speed
knots
gust
knots
rain 1hr
in
rain 24hr
in
rain mn
in
humidity
%
barometer
mb
20260510180116 81 149 0.9 5.2 0.00 0.00 0.00 44 1011.9
20260510175559 81 0 0.9 6.1 0.00 0.00 0.00 44 1012.0
20260510175101 81 342 1.7 6.1 0.00 0.00 0.00 41 1012.1
20260510174601 80 331 0.9 5.2 0.00 0.00 0.00 43 1012.0
20260510174100 80 135 1.7 5.2 0.00 0.00 0.00 42 1012.1
20260510173600 80 127 0.9 4.3 0.00 0.00 0.00 45 1012.0
20260510173101 80 185 0.9 4.3 0.00 0.00 0.00 44 1012.1
20260510172600 79 191 1.7 4.3 0.00 0.00 0.00 43 1012.1
20260510172059 79 137 0.9 6.1 0.00 0.00 0.00 45 1012.1
20260510171621 79 139 2.6 6.1 0.00 0.00 0.00 44 1012.1
20260510171101 79 339 0.0 1.7 0.00 0.00 0.00 46 1012.1
20260510170600 79 0 0.0 2.6 0.00 0.00 0.00 46 1012.2
20260510170105 78 0 0.0 3.5 0.00 0.00 0.00 48 1012.1
20260510165600 78 150 0.9 8.7 0.00 0.00 0.00 49 1012.1
20260510165059 78 149 3.5 8.7 0.00 0.00 0.00 45 1012.1
20260510164558 78 0 1.7 8.7 0.00 0.00 0.00 46 1012.2
20260510164059 78 0 0.9 3.5 0.00 0.00 0.00 46 1012.3
20260510163600 77 130 0.0 1.7 0.00 0.00 0.00 46 1012.4
20260510163100 77 326 0.9 4.3 0.00 0.00 0.00 49 1012.5
20260510162600 77 326 0.0 4.3 0.00 0.00 0.00 48 1012.6
20260510162100 77 317 0.9 4.3 0.00 0.00 0.00 47 1012.6
20260510161600 77 130 2.6 4.3 0.00 0.00 0.00 50 1012.6
20260510161100 77 109 0.0 6.1 0.00 0.00 0.00 50 1012.7
20260510160601 76 317 0.9 6.1 0.00 0.00 0.00 54 1012.7
20260510160110 76 0 1.7 6.1 0.00 0.00 0.00 49 1012.7
20260510155600 76 127 0.9 3.5 0.00 0.00 0.00 51 1012.7
20260510155100 76 0 0.9 5.2 0.00 0.00 0.00 54 1012.8
20260510154623 75 302 0.9 5.2 0.00 0.00 0.00 50 1012.9
20260510154059 75 0 0.9 3.5 0.00 0.00 0.00 52 1012.9
20260510153559 75 251 0.9 3.5 0.00 0.00 0.00 54 1012.9
20260510153105 74 325 0.0 2.6 0.00 0.00 0.00 49 1012.9
20260510152600 74 0 0.9 5.2 0.00 0.00 0.00 53 1012.9
20260510152100 74 0 0.0 5.2 0.00 0.00 0.00 52 1012.8
20260510151559 73 0 0.9 4.3 0.00 0.00 0.00 50 1012.8
20260510151100 73 119 0.9 5.2 0.00 0.00 0.00 52 1012.7
20260510150600 73 110 0.9 5.2 0.00 0.00 0.00 50 1012.8
20260510150124 73 0 1.7 5.2 0.00 0.00 0.00 53 1012.8
20260510145600 73 0 0.0 5.2 0.00 0.00 0.00 51 1012.7
20260510145059 73 0 0.0 1.7 0.00 0.00 0.00 52 1012.7
20260510144615 72 0 0.0 2.6 0.00 0.00 0.00 52 1012.6
20260510144100 72 0 0.0 4.3 0.00 0.00 0.00 51 1012.4
20260510143600 72 333 0.9 4.3 0.00 0.00 0.00 54 1012.5
20260510143104 72 357 0.0 2.6 0.00 0.00 0.00 59 1012.4
20260510142600 72 0 0.0 2.6 0.00 0.00 0.00 59 1012.3
20260510142104 72 0 0.0 2.6 0.00 0.00 0.00 58 1012.2
20260510141601 72 357 0.0 2.6 0.00 0.00 0.00 58 1012.2
20260510141100 71 0 0.0 2.6 0.00 0.00 0.00 60 1012.2
20260510140559 70 0 0.0 1.7 0.00 0.00 0.00 62 1012.1
20260510140100 69 0 0.0 2.6 0.00 0.00 0.00 65 1012.2
20260510135600 69 0 0.0 2.6 0.00 0.00 0.00 68 1012.3
20260510135102 68 352 0.9 2.6 0.00 0.00 0.00 68 1012.3
20260510134604 68 353 0.0 0.9 0.00 0.00 0.00 69 1012.4
20260510134100 67 0 0.0 1.7 0.00 0.00 0.00 72 1012.3
20260510133559 66 0 0.0 1.7 0.00 0.00 0.00 75 1012.4
20260510133059 65 0 0.0 0.0 0.00 0.00 0.00 76 1012.4
20260510132600 64 0 0.0 0.9 0.00 0.00 0.00 79 1012.2
20260510132100 63 0 0.0 1.7 0.00 0.00 0.00 80 1012.3
20260510131558 62 0 0.0 1.7 0.00 0.00 0.00 82 1012.2
20260510131100 61 0 0.0 0.9 0.00 0.00 0.00 85 1012.2
20260510130600 60 0 0.0 0.9 0.00 0.00 0.00 86 1012.4
20260510130059 60 0 0.0 0.9 0.00 0.00 0.00 88 1012.3
20260510125559 59 0 0.0 1.7 0.00 0.00 0.00 89 1012.5
20260510125100 59 0 0.0 1.7 0.00 0.00 0.00 91 1012.7
20260510124601 58 0 0.0 0.9 0.00 0.00 0.00 92 1012.7
20260510124100 57 0 0.0 0.9 0.00 0.00 0.00 93 1012.9
20260510123600 57 0 0.0 0.9 0.00 0.00 0.00 94 1013.0
20260510123100 56 0 0.0 0.9 0.00 0.00 0.00 94 1012.8
20260510122559 56 0 0.0 0.9 0.00 0.00 0.00 94 1012.7
20260510122059 55 0 0.0 0.9 0.00 0.00 0.00 94 1012.7
20260510121601 55 0 0.0 0.9 0.00 0.00 0.00 94 1012.6
20260510121101 54 0 0.0 0.9 0.00 0.00 0.00 94 1012.5
20260510120600 53 0 0.0 1.7 0.00 0.00 0.00 94 1012.3
20260510120100 53 0 0.0 1.7 0.00 0.00 0.00 94 1012.2
20260510115600 52 259 0.0 0.9 0.00 0.00 0.00 94 1012.2
20260510115100 52 0 0.0 0.9 0.00 0.00 0.00 94 1012.0
20260510114600 52 0 0.0 0.9 0.00 0.00 0.00 94 1011.9
20260510114059 51 0 0.0 1.7 0.00 0.00 0.00 94 1012.0
20260510113632 51 0 0.0 1.7 0.00 0.00 0.00 93 1011.8
20260510113102 51 0 0.0 0.9 0.00 0.00 0.00 94 1011.8
20260510112600 51 0 0.0 0.9 0.00 0.00 0.00 94 1011.7
20260510112100 50 0 0.0 0.0 0.00 0.00 0.00 93 1011.7
20260510111600 50 0 0.0 0.0 0.00 0.00 0.00 93 1011.6
20260510111059 50 0 0.0 0.0 0.00 0.00 0.00 93 1011.6
20260510110559 50 0 0.0 0.0 0.00 0.00 0.00 93 1011.4
20260510110059 50 0 0.0 0.0 0.00 0.00 0.00 93 1011.3
20260510105600 49 0 0.0 0.0 0.00 0.00 0.00 93 1011.2
20260510105059 49 0 0.0 0.0 0.00 0.00 0.00 92 1011.1
20260510104610 49 0 0.0 0.0 0.00 0.00 0.00 92 1011.1
20260510104100 49 0 0.0 0.0 0.00 0.00 0.00 92 1011.1
20260510103600 49 0 0.0 0.0 0.00 0.00 0.00 92 1010.9
20260510103058 49 0 0.0 0.0 0.00 0.00 0.00 92 1010.9
20260510102600 49 0 0.0 0.0 0.00 0.00 0.00 92 1010.9
20260510102100 49 0 0.0 0.9 0.00 0.00 0.00 92 1010.8
20260510101603 49 0 0.0 0.9 0.00 0.00 0.00 92 1010.9
20260510101102 49 0 0.0 0.0 0.00 0.00 0.00 92 1010.8
20260510100600 49 0 0.0 0.0 0.00 0.00 0.00 92 1010.7
20260510100059 50 0 0.0 0.0 0.00 0.00 0.00 92 1010.7
20260510095559 50 0 0.0 0.0 0.00 0.00 0.00 92 1010.6
20260510095059 50 0 0.0 0.0 0.00 0.00 0.00 92 1010.7
20260510094615 50 0 0.0 0.0 0.00 0.00 0.00 92 1010.6
20260510094059 50 0 0.0 0.0 0.00 0.00 0.00 92 1010.6
20260510093559 50 0 0.0 0.0 0.00 0.00 0.00 92 1010.6
20260510093059 50 0 0.0 0.0 0.00 0.00 0.00 92 1010.6
20260510092602 50 0 0.0 0.0 0.00 0.00 0.00 91 1010.6
20260510092059 50 0 0.0 0.0 0.00 0.00 0.00 92 1010.6
20260510091559 51 0 0.0 0.0 0.00 0.00 0.00 92 1010.7
20260510091101 51 0 0.0 0.0 0.00 0.00 0.00 92 1010.6
20260510090600 51 0 0.0 0.0 0.00 0.00 0.00 92 1010.5
20260510090059 51 0 0.0 0.0 0.00 0.00 0.00 92 1010.4
20260510085600 51 0 0.0 0.0 0.00 0.00 0.00 92 1010.5
20260510085100 51 0 0.0 0.0 0.00 0.00 0.00 92 1010.5
20260510084614 51 0 0.0 0.0 0.00 0.00 0.00 92 1010.4
20260510084100 51 0 0.0 0.0 0.00 0.00 0.00 92 1010.3
20260510083559 51 0 0.0 0.0 0.00 0.00 0.00 92 1010.3
20260510083117 51 0 0.0 0.0 0.00 0.00 0.00 92 1010.2
20260510082600 51 0 0.0 0.0 0.00 0.00 0.00 92 1010.1
20260510082059 51 0 0.0 0.0 0.00 0.00 0.00 92 1010.2
20260510081613 51 0 0.0 0.0 0.00 0.00 0.00 92 1010.1
20260510081100 51 0 0.0 0.9 0.00 0.00 0.00 91 1010.0
20260510080559 51 0 0.0 0.9 0.00 0.00 0.00 91 1010.0
20260510080058 51 0 0.0 1.7 0.00 0.00 0.00 91 1010.0
20260510075559 51 0 0.0 1.7 0.00 0.00 0.00 91 1010.1
20260510075059 52 0 0.0 1.7 0.00 0.00 0.00 91 1010.1
20260510074600 52 0 0.0 0.0 0.00 0.00 0.00 91 1009.8
20260510074100 52 0 0.0 0.0 0.00 0.00 0.00 92 1009.7
20260510073556 52 0 0.0 0.0 0.00 0.00 0.00 91 1009.7
20260510073100 52 0 0.0 0.9 0.00 0.00 0.00 91 1009.6
20260510072600 52 0 0.0 1.7 0.00 0.00 0.00 91 1009.6
20260510072100 52 0 0.0 1.7 0.00 0.00 0.00 92 1009.6
20260510071601 52 0 0.0 0.0 0.00 0.00 0.00 91 1009.6
20260510071101 52 0 0.0 0.0 0.00 0.00 0.00 91 1009.4
20260510070559 52 0 0.0 0.0 0.00 0.00 0.00 91 1009.3
20260510070059 52 0 0.0 0.0 0.00 0.00 0.00 91 1009.2
20260510065600 52 0 0.0 0.0 0.00 0.00 0.00 91 1009.1
20260510065059 52 0 0.0 0.0 0.00 0.00 0.00 91 1009.1
20260510064603 53 0 0.0 0.0 0.00 0.00 0.00 91 1009.1
20260510064059 53 0 0.0 0.0 0.00 0.00 0.00 91 1009.1
20260510063556 53 0 0.0 0.0 0.00 0.00 0.00 91 1009.2
20260510063059 53 0 0.0 0.0 0.00 0.00 0.00 91 1009.2
20260510062600 53 0 0.0 0.0 0.00 0.00 0.00 91 1009.2
20260510062059 53 0 0.0 0.0 0.00 0.00 0.00 90 1009.2
20260510061605 53 0 0.0 0.0 0.00 0.00 0.00 91 1009.1
20260510061100 53 0 0.0 0.0 0.00 0.00 0.00 90 1009.1
20260510060603 54 0 0.0 0.0 0.00 0.00 0.00 91 1009.1
20260510060059 54 0 0.0 0.0 0.00 0.00 0.00 91 1009.2
20260510055559 54 0 0.0 0.0 0.00 0.00 0.00 90 1009.2
20260510055100 54 0 0.0 0.0 0.00 0.00 0.00 91 1009.2
20260510054557 54 0 0.0 0.0 0.00 0.00 0.00 90 1009.1
20260510054100 54 0 0.0 0.9 0.00 0.00 0.00 90 1009.2
20260510053600 54 0 0.0 0.9 0.00 0.00 0.00 90 1009.2
20260510053101 54 0 0.0 0.9 0.00 0.00 0.00 90 1009.2
20260510052559 54 0 0.0 0.9 0.00 0.00 0.00 90 1009.3
20260510052059 54 0 0.0 0.0 0.00 0.00 0.00 90 1009.2
20260510051601 55 0 0.0 0.0 0.00 0.00 0.00 90 1009.2
20260510051109 55 0 0.0 0.0 0.00 0.00 0.00 90 1009.2
20260510050559 55 0 0.0 0.0 0.00 0.00 0.00 90 1009.2
20260510050059 55 0 0.0 0.0 0.00 0.00 0.00 89 1009.1
20260510045559 55 0 0.0 0.9 0.00 0.00 0.00 89 1009.1
20260510045059 55 0 0.0 0.9 0.00 0.00 0.00 89 1009.2
20260510044559 55 0 0.0 0.9 0.00 0.00 0.00 90 1009.2
20260510044059 55 152 0.0 0.9 0.00 0.00 0.00 90 1009.0
20260510043559 55 0 0.0 0.9 0.00 0.00 0.00 89 1009.1
20260510043111 55 0 0.0 0.0 0.00 0.00 0.00 89 1009.1
20260510042559 56 0 0.0 0.0 0.00 0.00 0.00 89 1009.1
20260510042059 56 0 0.0 0.0 0.00 0.00 0.00 89 1009.1
20260510041604 56 0 0.0 0.0 0.00 0.00 0.00 89 1009.1
20260510041059 56 0 0.0 0.0 0.00 0.00 0.00 88 1009.1
20260510040600 56 0 0.0 0.0 0.00 0.00 0.00 88 1009.1
20260510040107 56 0 0.0 0.0 0.00 0.00 0.00 88 1009.1
20260510035559 56 0 0.0 0.0 0.00 0.00 0.00 87 1009.2
20260510035103 57 0 0.0 0.0 0.00 0.00 0.00 87 1009.1
20260510034602 57 0 0.0 0.0 0.00 0.00 0.00 87 1009.1
20260510034100 57 0 0.0 0.0 0.00 0.00 0.00 87 1009.0
20260510033600 57 0 0.0 0.0 0.00 0.00 0.00 87 1008.9
20260510033057 57 0 0.0 0.0 0.00 0.00 0.00 86 1008.9
20260510032559 57 0 0.0 0.0 0.00 0.00 0.00 86 1008.8
20260510032059 58 0 0.0 0.0 0.00 0.00 0.00 86 1008.9
20260510031604 58 0 0.0 0.0 0.00 0.00 0.00 85 1008.9
20260510031058 58 0 0.0 0.0 0.00 0.00 0.00 85 1008.8
20260510030558 58 0 0.0 0.0 0.00 0.00 0.00 84 1008.9
20260510030103 59 0 0.0 0.0 0.00 0.00 0.00 84 1009.0
20260510025600 59 0 0.0 0.0 0.00 0.00 0.00 84 1008.9
20260510025100 59 0 0.0 0.0 0.00 0.00 0.00 83 1008.8
20260510024558 59 0 0.0 0.0 0.00 0.00 0.00 83 1008.8
20260510024059 59 0 0.0 0.0 0.00 0.00 0.00 83 1008.7
20260510023559 59 0 0.0 0.0 0.00 0.00 0.00 83 1008.6
20260510023057 60 0 0.0 0.0 0.00 0.00 0.00 82 1008.6
20260510022559 60 0 0.0 0.0 0.00 0.00 0.00 82 1008.6
20260510022059 60 0 0.0 0.9 0.00 0.00 0.00 82 1008.6
20260510021556 60 0 0.0 0.9 0.00 0.00 0.00 82 1008.7
20260510021059 60 0 0.0 0.9 0.00 0.00 0.00 82 1008.5
20260510020559 60 0 0.0 0.9 0.00 0.00 0.00 82 1008.5
20260510020058 60 0 0.0 0.0 0.00 0.00 0.00 81 1008.4
20260510015559 61 0 0.0 0.0 0.00 0.00 0.00 81 1008.3
20260510015059 61 0 0.0 0.0 0.00 0.00 0.00 80 1008.2
20260510014601 61 0 0.0 0.0 0.00 0.00 0.00 80 1008.2
20260510014101 61 0 0.0 0.0 0.00 0.00 0.00 79 1008.2
20260510013602 61 0 0.0 0.0 0.00 0.00 0.00 79 1008.2
20260510013113 61 0 0.0 0.0 0.00 0.00 0.00 79 1008.0
20260510012601 61 0 0.0 0.0 0.00 0.00 0.00 79 1008.0
20260510012101 61 0 0.0 0.0 0.00 0.00 0.00 79 1008.0
20260510011600 62 0 0.0 0.0 0.00 0.00 0.00 78 1007.9
20260510011100 62 0 0.0 0.0 0.00 0.00 0.00 77 1007.9
20260510010601 62 0 0.0 0.0 0.00 0.00 0.00 77 1007.8
20260510010058 62 0 0.0 0.0 0.00 0.00 0.00 76 1007.7
20260510005600 63 0 0.0 0.0 0.00 0.00 0.00 75 1007.7
20260510005100 63 0 0.0 0.0 0.00 0.00 0.00 74 1007.7
20260510004604 63 0 0.0 0.0 0.00 0.00 0.00 73 1007.5
20260510004059 64 0 0.0 0.0 0.00 0.00 0.00 73 1007.5
20260510003600 64 0 0.0 0.0 0.00 0.00 0.00 72 1007.6
20260510003105 65 0 0.0 0.0 0.00 0.00 0.00 71 1007.6
20260510002601 65 0 0.0 0.0 0.00 0.00 0.00 70 1007.6
20260510002100 66 0 0.0 0.0 0.00 0.00 0.00 69 1007.5
20260510001600 66 0 0.0 0.9 0.00 0.00 0.00 68 1007.4
20260510001101 67 0 0.0 0.9 0.00 0.00 0.00 67 1007.4
20260510000602 67 0 0.0 0.0 0.00 0.00 0.00 66 1007.3
20260510000103 68 0 0.0 0.0 0.00 0.00 0.00 66 1007.3
20260509235600 68 0 0.0 0.0 0.00 0.00 0.00 65 1007.2
20260509235100 69 0 0.0 0.0 0.00 0.00 0.00 64 1007.3
20260509234602 69 0 0.0 0.0 0.00 0.00 0.00 63 1007.2
20260509234100 69 0 0.0 0.0 0.00 0.00 0.00 63 1007.2
20260509233602 70 0 0.0 0.0 0.00 0.00 0.00 62 1007.1
20260509233113 70 0 0.0 0.0 0.00 0.00 0.00 61 1007.2
20260509232601 71 0 0.0 0.0 0.00 0.00 0.00 60 1007.0
20260509232101 71 0 0.0 0.0 0.00 0.00 0.00 60 1007.1
20260509231605 71 0 0.0 0.9 0.00 0.00 0.00 59 1007.1
20260509231059 71 0 0.0 0.9 0.00 0.00 0.00 59 1007.1
20260509230559 71 0 0.0 0.9 0.00 0.00 0.00 60 1007.0
20260509225603 72 0 0.0 0.0 0.00 0.00 0.00 58 1007.0
20260509225059 72 0 0.0 0.9 0.00 0.00 0.00 57 1007.0
20260509224600 72 0 0.0 0.9 0.00 0.00 0.00 57 1007.0
20260509224103 72 0 0.0 0.9 0.00 0.00 0.00 56 1007.0
20260509223645 72 0 0.0 0.9 0.00 0.00 0.00 57 1007.0
20260509223059 73 0 0.0 1.7 0.00 0.00 0.00 59 1007.1
20260509222600 73 0 0.0 1.7 0.00 0.00 0.00 59 1007.2
20260509222100 73 0 0.0 0.9 0.00 0.00 0.00 56 1007.1
20260509221600 73 0 0.0 0.9 0.00 0.00 0.00 55 1007.2
20260509221100 73 0 0.0 0.9 0.00 0.00 0.00 57 1007.1
20260509220559 73 0 0.0 1.7 0.00 0.00 0.00 57 1007.2
20260509220058 74 0 0.0 2.6 0.00 0.00 0.00 54 1007.3
20260509215600 74 137 0.0 2.6 0.00 0.00 0.00 53 1007.1
20260509215059 74 137 0.0 1.7 0.00 0.00 0.00 55 1007.0
20260509214559 73 137 0.0 1.7 0.00 0.00 0.00 57 1007.0
20260509214059 72 0 0.0 1.7 0.00 0.00 0.00 56 1007.1
20260509213559 72 0 0.0 1.7 0.00 0.00 0.00 56 1007.0
20260509213101 73 0 0.0 2.6 0.00 0.00 0.00 56 1007.1
20260509212601 74 137 0.0 2.6 0.00 0.00 0.00 55 1007.0
20260509212100 74 137 0.0 3.5 0.00 0.00 0.00 54 1007.0
20260509211557 74 0 0.9 3.5 0.00 0.00 0.00 55 1007.0
20260509211059 74 57 0.0 2.6 0.00 0.00 0.00 55 1007.1
20260509210601 74 331 0.0 3.5 0.00 0.00 0.00 54 1007.1
20260509210108 75 0 0.9 4.3 0.00 0.00 0.00 51 1007.0
20260509205601 75 0 0.9 5.2 0.00 0.00 0.00 54 1006.9
20260509205101 75 334 0.9 5.2 0.00 0.00 0.00 51 1006.9
20260509204604 76 256 0.9 5.2 0.00 0.00 0.00 51 1006.9
20260509204101 76 333 2.6 5.2 0.00 0.00 0.00 50 1006.8
20260509203600 76 0 0.9 4.3 0.00 0.00 0.00 54 1006.7
20260509203101 76 151 0.9 4.3 0.00 0.00 0.00 52 1006.7
20260509202601 76 148 0.9 5.2 0.00 0.00 0.00 51 1006.7
20260509202102 75 149 0.9 5.2 0.00 0.00 0.00 53 1006.8
20260509201600 75 146 0.9 3.5 0.00 0.00 0.00 52 1006.9
20260509201100 75 149 0.9 4.3 0.00 0.00 0.00 53 1007.0
20260509200559 75 108 0.9 4.3 0.00 0.00 0.00 54 1007.0
20260509200109 74 335 0.9 5.2 0.00 0.00 0.00 54 1007.2
20260509195600 74 178 1.7 10.4 0.00 0.00 0.00 53 1007.2
20260509195101 74 0 2.6 10.4 0.00 0.00 0.00 54 1007.3
20260509194559 74 240 1.7 7.0 0.00 0.00 0.00 52 1007.4
20260509194102 73 0 1.7 5.2 0.00 0.00 0.00 53 1007.3
20260509193601 73 137 1.7 5.2 0.00 0.00 0.00 55 1007.5
20260509193102 72 0 1.7 5.2 0.00 0.00 0.00 57 1007.5
20260509192601 72 0 0.9 6.1 0.00 0.00 0.00 58 1007.6
20260509192059 71 323 1.7 6.1 0.00 0.00 0.00 55 1007.8
20260509191606 71 131 0.0 4.3 0.00 0.00 0.00 55 1007.8
20260509191101 70 129 1.7 3.5 0.00 0.00 0.00 57 1007.8
20260509190600 70 27 0.0 3.5 0.00 0.00 0.00 58 1007.9
20260509185559 70 0 0.9 4.3 0.00 0.00 0.00 57 1008.0
20260509185100 69 0 0.9 7.0 0.00 0.00 0.00 59 1008.0
20260509184701 69 0 0.9 7.0 0.00 0.00 0.00 58 1008.1
20260509184059 69 347 0.0 4.3 0.00 0.00 0.00 59 1008.2
20260509183559 69 343 0.0 6.1 0.00 0.00 0.00 61 1008.3
20260509183110 69 341 1.7 6.1 0.00 0.00 0.00 61 1008.5
20260509182601 69 270 1.7 7.8 0.00 0.00 0.00 58 1008.6
20260509182059 69 32 1.7 7.8 0.00 0.00 0.00 58 1008.7
20260509181601 69 136 1.7 7.8 0.00 0.00 0.00 59 1008.7
20260509181101 69 100 1.7 7.8 0.00 0.00 0.00 57 1008.6
20260509180600 69 142 1.7 7.8 0.00 0.00 0.00 60 1008.8